Regional Weather Roundup
Issued by NWS

Home | Current Version | Previous Version | Graphics & Text | Print | Product List | Glossary On
Versions: 1 2 3 4 5 6 7 8 9 10 11 12 13 14 15 16 17 18 19 20 21 22 23 24 25 26 27 28 29 30 31 32 33 34 35 36 37 38 39 40 41 42 43 44 45 46 47 48 49 50
000
ASUS43 KIND 270159
RWRIN

WEATHER ROUNDUP FOR INDIANA
NATIONAL WEATHER SERVICE INDIANAPOLIS IN
900 PM EST WED NOV 26 2014

NOTE: "FAIR" INDICATES FEW OR NO CLOUDS BELOW 12,000 FEET WITH NO
SIGNIFICANT WEATHER AND/OR OBSTRUCTIONS TO VISIBILITY.

* - STATION DOES NOT REPORT WEATHER SUCH AS PRECIPITATION OR FOG.

+ - STATION NOT QUALITY CONTROLLED BY THE NATIONAL WEATHER SERVICE.
    USE DATA WITH CAUTION...ESPECIALLY DEWPOINT AND RELATIVE
    HUMIDITY OBSERVATIONS.

INZ001>003-010>013-019-020-270300-
NORTHWEST INDIANA

CITY           SKY/WX    TMP DP  RH WIND       PRES   REMARKS
GARY /AIRPORT/ CLOUDY    30  21  69 CALM      30.15R
VALPARAISO     NOT AVBL

$$

LMZ046-743>745-270300-
SOUTHERN LAKE MICHIGAN

STATION/POSITION TIME  TEMP WIND        PRES
                       AIR  DIR/SP/G
                 (UTC) (F)  (DEG/KT/KT) (MB)
MICHIGAN CITY    0100   27   80/  4/  5   N/A

$$

INZ004-005-014>016-021>024-270300-
NORTH CENTRAL INDIANA

CITY           SKY/WX    TMP DP  RH WIND       PRES   REMARKS
ELKHART        CLOUDY    28  19  69 CALM      30.12S
GOSHEN         CLOUDY    28  20  71 N6        30.10S WCI  22
SOUTH BEND     CLOUDY    28  20  71 N3        30.13R

$$

INZ006>009-017-018-025>027-270300-
NORTHEAST INDIANA

CITY           SKY/WX    TMP DP  RH WIND       PRES   REMARKS
ANGOLA *+      CLOUDY    27  21  80 N5        30.08S WCI  21
FORT WAYNE     CLOUDY    29  22  75 CALM      30.09S

$$

INZ028-029-035-036-043>045-051>053-270300-
WEST CENTRAL INDIANA

CITY           SKY/WX    TMP DP  RH WIND       PRES   REMARKS
GREENCASTLE +  CLOUDY    30  27  86 NE6       30.07S WCI  24
LAFAYETTE      MOCLDY    25  20  81 NE5       30.11R WCI  19
TERRE HAUTE    CLOUDY    32  25  75 N5        30.07S WCI  27

$$

INZ030>032-037>040-046>048-054>057-064-065-270300-
CENTRAL INDIANA

CITY           SKY/WX    TMP DP  RH WIND       PRES   REMARKS
COLUMBUS       MOCLDY    30  28  93 NE5       30.07R WCI  25
INDIANAPOLIS   MOCLDY    28  22  78 NE10      30.06S WCI  19
-EAGLE CREEK   PTCLDY    28  22  78 N5        30.07R WCI  23
KOKOMO *+      CLOUDY    28  19  69 NE6       30.09S WCI  22
MT COMFORT *+  CLOUDY    28  19  69 NE9       30.07S WCI  20
SHELBYVILLE    MOCLDY    31  24  75 NE6       30.06S WCI  25

$$

INZ033-034-041-042-049-050-058-059-270300-
EAST CENTRAL INDIANA

CITY           SKY/WX    TMP DP  RH WIND       PRES   REMARKS
MUNCIE         CLOUDY    28  21  75 NE6       30.08R WCI  22

$$

INZ060-061-067>069-081>083-085>088-270300-
SOUTHWEST INDIANA

CITY           SKY/WX    TMP DP  RH WIND       PRES   REMARKS
EVANSVILLE     LGT SNOW  33  31  92 NE5       30.05F VSB 1   WCI  29
HUNTINGBURG *+ CLOUDY    37  28  70 NE7       30.06S

$$

INZ062-063-066-070>080-084-089>092-270300-
SOUTH CENTRAL AND SOUTHEAST INDIANA

CITY           SKY/WX    TMP DP  RH WIND       PRES   REMARKS
BLOOMINGTON    CLOUDY    33  26  75 NE6       30.05S WCI  28
SEYMOUR +      CLOUDY    34  27  75 N6        30.07R WCI  29

$$




USA.gov is the U.S. government's official web portal to all federal, state and local government web resources and services.